Terug naar catalogus

ATLAS 5 CENTAUR DEB

ActiefHEO
NORAD 44690·DEBRIS·🇺🇸 United States

Gelanceerd Oct 17, 2018 vanaf Cape Canaveral Space Force Station

Loading…

Volgende Passages (komende 24 uur)

TLE

VersSource: Space-Track

Epoch: Sep 12, 2026, 22:16 UTC

1 44690U 18079BC  26255.92844284 -.00000167  00000-0  00000-0 0  9994
2 44690  13.1371  29.0139 4401461 335.4590   8.6644  1.88480858 48756

Volg ATLAS 5 CENTAUR DEB in realtime met AllMySat

Download on the App Store